Weather in Krasochny

Russia / Stavropol Krai     45°49′24″N   42°31′33″E
temp.,
°C
wind,
m/s
gust,
m/s
humid.,
%
clouds,
%
prec.,
mm/h
press.,
hPa
HPBL,
m
15 april, thu
thu1500:00+8w3494100 0.0 101882
03:00+7w229325 0.0 101820
06:00+6w339313 0.0 101844
09:00+13w33703 0.0 1018463
12:00+17wnw45495 0.0 10171402
15:00+18nw4548100 0.0 10171647
18:00+16nw2263100 0.0 101720
21:00+12w006952 0.0 101810
16 april, fri
fri1600:00+11wsw227622 0.0 101815
03:00+10ssw228291 0.0 101810
06:00+10sw1181100 0.0 101910
09:00+15ene1166100 0.0 1019360
12:00+19ese345128 0.0 10181452
15:00+21se454160 0.0 10162247
18:00+12nw91595100 1.4 1019602
21:00+11w0196100 12.8 102019
17 april, sat
sat1700:00+10w0198100 1.4 102014
03:00+10w3597100 2.1 1020269
06:00+10wnw4998100 11.4 1021391
09:00+11w3592100 16.1 1022485
12:00+13wnw3376100 0.8 1022860
15:00+14wnw4466100 1.1 10221065
18:00+12w3474100 0.0 1023156
21:00+10wsw2276100 0.0 102329
18 april, sun
sun1800:00+9wnw117797 0.0 102211
03:00+9ne2275100 0.0 102144
06:00+9e3580100 0.0 1021133
09:00+12ese5773100 0.0 1019493
12:00+11e4889100 0.8 1018457
15:00+11ne1197100 10.5 1018116
18:00+12e4692100 3.8 1017285
21:00+11nne2398100 4.9 1018109
19 april, mon
mon1900:00+11se4796100 1.3 1017195
03:00+10sse2295100 1.3 101628
06:00+11nw129592 0.0 101650
09:00+13wnw2389100 0.0 1016417
12:00+15wnw4583100 0.0 1016656
15:00+13nne2293100 1.4 1015157
18:00+13ne3392100 0.0 1014233
21:00+12ne4797100 0.3 1013219